Flag for Australia Weather past 2 weeks in Mosman, New South Wales, Australia

Now
64 °F

Mild.


Feels Like: 64 °F
Forecast: 64 / 72 °F
Wind: N/A

Location: Sydney Regional Office

Current Time: Jan 28, 2015 at 6:09:49 AM

Latest Report: Jan 28, 2015 at 4:00 AM


Visibility: N/A

Pressure: 29.86 "Hg

Humidity: 95%

Dew point: 63 °F

Location of MosmanLocation

Historic Weather in Mosman — Graph

°F

Mosman temperature yesterday

Maximum temperature yesterday: 68 °F (at 3:00 PM)
Minimum temperature yesterday: 66 °F (at 10:00 PM)
Average temperature yesterday: 67 °F

Past Weeks' High & Low Weather Summary

 TemperatureHumidityPressure
High93 °F (Jan 17, 1:00 PM)97% (Jan 13, 6:00 AM)30.03 "Hg (Jan 13, 6:00 AM)
Low64 °F (Jan 28, 4:00 AM)22% (Jan 17, 12:00 PM)29.44 "Hg (Jan 14, 1:00 PM)
Average75 °F73%29.79 "Hg
* Reported Jan 13 4:00 AM — Jan 28 4:00 AM, Mosman, Weather by CustomWeather, © 2014

Note: Actual official high and low records may vary slightly from our data, if they occured in-between our weather recording intervals... More about our weather records

Advertising

Mosman weather history for previous 24 hours

 ConditionsComfort  
Time TempWeatherWind HumidityBarometerVisibility
4:00 AM
Jan 28
64 °FMild.N/A95%29.86 "HgN/A
3:00 AM65 °FMild.N/A96%29.86 "HgN/A
1:00 AM65 °FMild.N/A96%29.90 "HgN/A
12:00 AM65 °FMild.N/A96%29.90 "HgN/A
10:00 PM
Jan 27
66 °FMild.N/A97%29.91 "HgN/A
9:00 PM66 °FFog.N/A97%29.90 "HgN/A
7:00 PM67 °FMild.N/A94%29.88 "HgN/A
6:00 PM67 °FMild.N/A95%29.87 "HgN/A
4:00 PM66 °FMild.N/A95%29.89 "HgN/A
3:00 PM68 °FMild.N/A93%29.90 "HgN/A
1:00 PM67 °FMild.N/A96%29.92 "HgN/A
12:00 PM67 °FMild.N/A97%29.93 "HgN/A
10:00 AM66 °FMild.N/A97%29.93 "HgN/A
9:00 AM67 °FFog.N/A96%29.92 "HgN/A
7:00 AM67 °FMild.N/A95%29.89 "HgN/A
6:00 AM67 °FMild.N/A96%29.88 "HgN/A
Weather by CustomWeather, © 2014

See weather overviewHow to use our weather pages